#timestamp,LO_Frequency,Hit 
1499756415.4,286042813.0,N
1499756435.2,286042814.6,N
1499756455.0,286042817.1,N
1499756455.9,286042817.1,N
1499756475.8,286042814.1,N
1499756495.6,286042817.1,N
1499756515.4,286042817.0,N
1499756535.3,286042816.7,N
1499756555.1,286042816.8,N
1499756575.9,286042815.6,N
1499756595.7,286042814.4,N
1499756615.5,286042816.7,N
1499756635.4,286042814.0,N
1499756655.2,286042815.2,N
1499756675.1,286042814.6,N
1499756676.0,286042814.6,N
1499756695.8,286042814.8,N
1499756715.6,286042814.2,N
1499756735.5,286042816.7,N
1499756755.3,286042815.8,N
1499756775.1,286042818.4,N
1499756795.9,286042816.7,N
1499756815.7,286042816.0,N
1499756835.6,286042815.9,N
1499756855.4,286042817.6,N
1499756875.2,286042817.1,N
1499756895.1,286042816.7,N
1499756896.0,286042816.7,N
1499756915.8,286042816.7,N
1499756935.6,286042815.6,N
1499756955.5,286042816.5,N
1499756975.3,286042817.1,N
1499756995.2,286042814.0,N
1499757015.9,286042818.7,N
1499757035.7,286042816.6,N
1499757055.6,286042816.5,N
1499757075.4,286042817.8,N
1499757095.2,286042815.7,N
1499757115.1,286042815.8,N
1499757116.0,286042815.8,N
1499757135.8,286042817.0,N
1499757155.7,286042818.4,N
1499757175.5,286042818.2,N
1499757195.3,286042817.5,N
1499757215.2,286042817.5,N
1499757235.0,286042815.6,N
1499757235.9,286042815.6,N
1499757255.8,286042814.5,N
1499757275.6,286042818.3,N
1499757295.4,286042819.4,N
1499757315.3,286042817.8,N
1499757335.1,286042816.2,N
1499757355.8,286042817.4,N
1499757375.7,286042821.9,N
1499757395.5,286042820.4,N
1499757415.4,286042821.7,N
1499757435.2,286042821.3,N
1499757455.0,286042819.3,N
1499757455.9,286042819.3,N
1499757475.8,286042819.0,N
1499757495.6,286042821.2,N
1499757515.4,286042823.1,N
1499757535.3,286042820.1,N
1499757555.1,286042817.5,N
1499757575.9,286042817.8,N
1499757595.7,286042819.9,N
1499757615.5,286042820.0,N
1499757635.4,286042817.5,N
1499757655.2,286042818.8,N
1499757675.0,286042820.2,N
1499757675.9,286042820.2,N
1499757695.8,286042819.5,N
1499757715.6,286042820.0,N
1499757735.5,286042819.8,N
1499757755.3,286042820.5,N
1499757775.1,286042822.2,N
1499757795.9,286042821.6,N
1499757815.7,286042821.6,N
1499757835.6,286042821.7,N
1499757855.4,286042821.9,N
1499757875.2,286042821.0,N
1499757895.1,286042821.9,N
1499757896.0,286042821.9,N
1499757915.8,286042821.1,N
1499757935.6,286042819.5,N
1499757955.5,286042820.3,N
1499757975.3,286042821.4,N
1499757995.2,286042819.3,N
1499758015.9,286042821.5,N
1499758035.7,286042820.3,N
1499758055.6,286042817.7,N
1499758075.4,286042817.8,N
1499758095.2,286042820.1,N
1499758115.1,286042820.9,N
1499758116.0,286042820.9,N
1499758135.8,286042822.7,N
1499758155.7,286042823.5,N
1499758175.5,286042823.3,N
1499758195.3,286042820.8,N
1499758215.2,286042820.4,N
1499758235.0,286042821.8,N
1499758235.9,286042821.8,N
1499758255.8,286042818.8,N
1499758275.6,286042818.9,N
1499758295.4,286042818.8,N
1499758315.3,286042820.3,N
1499758335.1,286042819.3,N
1499758355.8,286042819.5,N
1499758375.7,286042821.6,N
1499758395.5,286042819.7,N
1499758415.4,286042821.3,N
1499758435.2,286042822.9,N
1499758455.0,286042821.3,N
1499758455.9,286042821.3,N
1499758475.8,286042821.7,N
1499758495.6,286042819.0,N
1499758515.4,286042818.9,N
1499758535.3,286042823.0,N
1499758555.1,286042822.5,N
1499758575.9,286042823.0,N
1499758595.7,286042823.3,N
1499758615.5,286042822.8,N
1499758635.4,286042822.8,N
1499758655.2,286042820.5,N
1499758675.0,286042821.1,N
1499758675.9,286042821.1,N
1499758695.8,286042821.0,N
1499758715.6,286042822.8,N
1499758735.5,286042821.1,N
1499758755.3,286042818.8,N
1499758775.1,286042820.1,N
1499758795.9,286042818.9,N
1499758815.7,286042819.3,N
1499758835.5,286042823.3,N
1499758855.4,286042820.7,N
1499758875.2,286042821.8,N
1499758895.1,286042819.5,N
1499758896.0,286042819.5,N
1499758915.8,286042820.8,N
1499758935.6,286042822.6,N
1499758955.5,286042823.0,N
1499758975.3,286042820.6,N
1499758995.1,286042823.4,N
1499759015.9,286042822.7,N
1499759035.7,286042823.2,N
1499759055.6,286042822.3,N
1499759075.4,286042823.4,N
1499759095.2,286042825.1,N
1499759115.1,286042823.2,N
1499759116.0,286042823.2,N
1499759135.8,286042825.0,N
1499759155.7,286042822.8,N
1499759175.5,286042822.2,N
1499759195.3,286042826.0,N
1499759215.2,286042826.5,N
1499759235.0,286042826.4,N
1499759235.9,286042826.4,N
1499759255.7,286042825.8,N
1499759275.6,286042826.2,N
1499759295.4,286042826.4,N
1499759315.3,286042825.1,N
1499759335.1,286042822.8,N
1499759336.0,286042822.8,N
1499759355.8,286042824.9,N
1499759375.7,286042823.9,N
1499759395.5,286042826.3,N
1499759415.3,286042823.6,N
1499759435.2,286042822.2,N
1499759455.0,286042822.8,N
1499759455.9,286042822.8,N
1499759475.8,286042823.2,N
1499759495.6,286042823.4,N
1499759515.4,286042822.8,N
1499759535.3,286042823.4,N
1499759555.1,286042825.1,N
1499759575.9,286042823.4,N
1499759595.7,286042821.1,N
1499759615.5,286042823.0,N
1499759635.4,286042823.1,N
1499759655.2,286042822.9,N
1499759675.1,286042823.2,N
1499759676.0,286042823.2,N
1499759695.8,286042820.7,N
1499759715.6,286042822.6,N
1499759735.5,286042821.3,N
1499759755.3,286042823.3,N
1499759775.2,286042820.5,N
1499759795.9,286042822.7,N
1499759815.7,286042823.5,N
1499759835.6,286042822.9,N
1499759855.4,286042823.1,N
1499759875.2,286042820.9,N
1499759895.1,286042823.2,N
1499759896.0,286042823.2,N
1499759915.8,286042822.9,N
1499759935.7,286042822.9,N
1499759955.5,286042825.0,N
1499759975.3,286042823.8,N
1499759995.2,286042822.5,N
